| time (UTC) | temp C | wind direction | speed KPH | gust KPH | rain 1hr cm | rain 24hr cm | rain mn cm | humidity % | barometer mb |
| 20260506084715 | 10 | 0 | 0.0 | 0.0 | 0.00 | 0.00 | 0.00 | 91 | 1019.6 |
| 20260506083605 | 10 | 102 | 0.0 | 1.6 | 0.00 | 0.00 | 0.00 | 91 | 1019.5 |
| 20260506082914 | 10 | 102 | 0.0 | 1.6 | 0.00 | 0.00 | 0.00 | 91 | 1019.5 |
| 20260506081805 | 11 | 0 | 0.0 | 0.0 | 0.00 | 0.00 | 0.00 | 89 | 1019.5 |
| 20260506080905 | 11 | 0 | 0.0 | 0.0 | 0.00 | 0.00 | 0.00 | 89 | 1019.4 |
| 20260506080216 | 11 | 0 | 0.0 | 0.0 | 0.00 | 0.00 | 0.00 | 88 | 1019.4 |
| 20260506072705 | 12 | 0 | 0.0 | 0.0 | 0.00 | 0.00 | 0.00 | 85 | 1019.1 |
| 20260506071805 | 13 | 0 | 0.0 | 0.0 | 0.00 | 0.00 | 0.00 | 85 | 1019.3 |
| 20260506070905 | 13 | 0 | 0.0 | 0.0 | 0.00 | 0.00 | 0.00 | 85 | 1019.2 |
| 20260506070217 | 13 | 0 | 0.0 | 0.0 | 0.00 | 0.00 | 0.00 | 84 | 1019.1 |
| 20260506061805 | 13 | 0 | 0.0 | 0.0 | 0.00 | 0.00 | 0.00 | 83 | 1019.0 |
| 20260506060905 | 13 | 0 | 0.0 | 0.0 | 0.00 | 0.00 | 0.00 | 82 | 1018.9 |
| 20260506060218 | 13 | 0 | 0.0 | 0.0 | 0.00 | 0.00 | 0.00 | 83 | 1018.8 |
| 20260506050904 | 13 | 216 | 0.0 | 1.6 | 0.00 | 0.00 | 0.00 | 83 | 1018.6 |
| 20260506044717 | 13 | 223 | 0.0 | 1.6 | 0.00 | 0.00 | 0.00 | 83 | 1018.5 |
| 20260506043814 | 13 | 0 | 0.0 | 0.0 | 0.00 | 0.00 | 0.00 | 84 | 1018.4 |
| 20260506042917 | 13 | 0 | 0.0 | 0.0 | 0.00 | 0.00 | 0.00 | 84 | 1018.3 |
| 20260506042014 | 13 | 263 | 0.0 | 1.6 | 0.00 | 0.00 | 0.00 | 84 | 1018.2 |
| 20260506040905 | 13 | 0 | 0.0 | 0.0 | 0.00 | 0.00 | 0.00 | 84 | 1018.1 |
| 20260506040219 | 13 | 302 | 0.0 | 1.6 | 0.00 | 0.00 | 0.00 | 85 | 1018.1 |
| 20260506035404 | 13 | 302 | 0.0 | 1.6 | 0.00 | 0.00 | 0.00 | 85 | 1018.0 |
| 20260506034505 | 13 | 0 | 0.0 | 0.0 | 0.00 | 0.00 | 0.00 | 84 | 1017.9 |
| 20260506033815 | 13 | 0 | 0.0 | 0.0 | 0.00 | 0.00 | 0.00 | 85 | 1017.7 |
| 20260506032917 | 13 | 0 | 0.0 | 0.0 | 0.00 | 0.00 | 0.00 | 85 | 1017.6 |
| 20260506032015 | 13 | 316 | 0.0 | 1.6 | 0.00 | 0.00 | 0.00 | 85 | 1017.6 |
| 20260506030905 | 13 | 276 | 0.0 | 3.2 | 0.00 | 0.00 | 0.00 | 84 | 1017.3 |
| 20260506030005 | 14 | 291 | 0.0 | 1.6 | 0.00 | 0.00 | 0.00 | 83 | 1017.2 |
| 20260506025616 | 14 | 275 | 0.0 | 1.6 | 0.00 | 0.00 | 0.00 | 83 | 1017.1 |
| 20260506024718 | 14 | 278 | 1.6 | 6.4 | 0.00 | 0.00 | 0.00 | 83 | 1017.2 |
| 20260506023605 | 14 | 292 | 1.6 | 6.4 | 0.00 | 0.00 | 0.00 | 81 | 1017.4 |
| 20260506022918 | 14 | 297 | 1.6 | 6.4 | 0.00 | 0.00 | 0.00 | 81 | 1017.4 |
| 20260506022015 | 14 | 303 | 1.6 | 8.0 | 0.00 | 0.00 | 0.00 | 80 | 1017.3 |
| 20260506021118 | 14 | 294 | 1.6 | 4.8 | 0.00 | 0.00 | 0.00 | 78 | 1017.2 |
| 20260506020215 | 15 | 305 | 1.6 | 8.0 | 0.00 | 0.00 | 0.00 | 77 | 1017.1 |
| 20260506015405 | 15 | 283 | 0.0 | 6.4 | 0.00 | 0.00 | 0.00 | 76 | 1017.1 |
| 20260506014714 | 15 | 284 | 1.6 | 6.4 | 0.00 | 0.00 | 0.00 | 75 | 1016.9 |
| 20260506013604 | 15 | 293 | 1.6 | 8.0 | 0.00 | 0.00 | 0.00 | 74 | 1016.9 |
| 20260506012919 | 15 | 310 | 3.2 | 11.3 | 0.00 | 0.00 | 0.00 | 75 | 1016.9 |
| 20260506012016 | 16 | 302 | 3.2 | 9.7 | 0.00 | 0.00 | 0.00 | 73 | 1016.9 |
| 20260506010905 | 16 | 285 | 1.6 | 8.0 | 0.00 | 0.00 | 0.00 | 71 | 1016.8 |
| 20260506010005 | 17 | 278 | 1.6 | 6.4 | 0.00 | 0.00 | 0.00 | 69 | 1016.8 |
| 20260506005404 | 16 | 284 | 3.2 | 9.7 | 0.00 | 0.00 | 0.00 | 69 | 1016.9 |
| 20260506004720 | 16 | 301 | 1.6 | 9.7 | 0.00 | 0.00 | 0.00 | 70 | 1016.8 |
| 20260506003817 | 17 | 281 | 1.6 | 8.0 | 0.00 | 0.00 | 0.00 | 70 | 1016.8 |
| 20260506002914 | 16 | 279 | 1.6 | 8.0 | 0.00 | 0.00 | 0.00 | 71 | 1016.7 |
| 20260506001805 | 16 | 285 | 3.2 | 11.3 | 0.00 | 0.00 | 0.00 | 72 | 1016.8 |
| 20260506000905 | 16 | 288 | 3.2 | 11.3 | 0.00 | 0.00 | 0.00 | 71 | 1016.6 |
| 20260506000005 | 16 | 319 | 1.6 | 11.3 | 0.00 | 0.00 | 0.00 | 71 | 1016.6 |
| 20260505235618 | 16 | 318 | 3.2 | 11.3 | 0.00 | 0.00 | 0.00 | 71 | 1016.5 |
| 20260505234505 | 16 | 296 | 3.2 | 12.9 | 0.00 | 0.00 | 0.00 | 70 | 1016.5 |
| 20260505233605 | 17 | 289 | 1.6 | 9.7 | 0.00 | 0.00 | 0.00 | 69 | 1016.4 |
| 20260505232915 | 17 | 287 | 1.6 | 9.7 | 0.00 | 0.00 | 0.00 | 68 | 1016.5 |
| 20260505231805 | 17 | 274 | 3.2 | 9.7 | 0.00 | 0.00 | 0.00 | 71 | 1016.5 |
| 20260505230904 | 16 | 317 | 3.2 | 9.7 | 0.00 | 0.00 | 0.00 | 71 | 1016.5 |
| 20260505230217 | 16 | 300 | 3.2 | 11.3 | 0.00 | 0.00 | 0.00 | 73 | 1016.6 |
| 20260505225405 | 16 | 285 | 1.6 | 8.0 | 0.00 | 0.00 | 0.00 | 73 | 1016.7 |
| 20260505224716 | 16 | 260 | 1.6 | 4.8 | 0.00 | 0.00 | 0.00 | 75 | 1016.7 |
| 20260505223604 | 16 | 273 | 1.6 | 11.3 | 0.00 | 0.00 | 0.00 | 74 | 1016.8 |
| 20260505222916 | 16 | 278 | 1.6 | 6.4 | 0.00 | 0.00 | 0.00 | 73 | 1016.8 |
| 20260505221804 | 16 | 294 | 3.2 | 12.9 | 0.00 | 0.00 | 0.00 | 73 | 1016.8 |
| 20260505220905 | 17 | 266 | 1.6 | 9.7 | 0.00 | 0.00 | 0.00 | 72 | 1016.8 |
| 20260505220005 | 16 | 284 | 3.2 | 12.9 | 0.00 | 0.00 | 0.00 | 73 | 1016.8 |
| 20260505215405 | 17 | 288 | 4.8 | 16.1 | 0.00 | 0.00 | 0.00 | 71 | 1016.8 |
| 20260505214504 | 16 | 278 | 3.2 | 12.9 | 0.00 | 0.00 | 0.00 | 72 | 1016.9 |
| 20260505213819 | 16 | 298 | 3.2 | 12.9 | 0.00 | 0.00 | 0.00 | 72 | 1016.9 |
| 20260505212916 | 17 | 290 | 3.2 | 12.9 | 0.00 | 0.00 | 0.00 | 71 | 1017.1 |
| 20260505211805 | 16 | 294 | 3.2 | 9.7 | 0.00 | 0.00 | 0.00 | 69 | 1017.1 |
| 20260505211116 | 17 | 312 | 3.2 | 9.7 | 0.00 | 0.00 | 0.00 | 67 | 1017.1 |
| 20260505210218 | 17 | 287 | 4.8 | 12.9 | 0.00 | 0.00 | 0.00 | 67 | 1017.1 |
| 20260505205615 | 17 | 288 | 4.8 | 12.9 | 0.00 | 0.00 | 0.00 | 67 | 1017.0 |
| 20260505204505 | 17 | 286 | 3.2 | 11.3 | 0.00 | 0.00 | 0.00 | 67 | 1017.0 |
| 20260505203814 | 17 | 295 | 4.8 | 14.5 | 0.00 | 0.00 | 0.00 | 67 | 1017.0 |
| 20260505202705 | 17 | 289 | 4.8 | 12.9 | 0.00 | 0.00 | 0.00 | 68 | 1017.0 |
| 20260505201805 | 17 | 307 | 3.2 | 14.5 | 0.00 | 0.00 | 0.00 | 66 | 1017.1 |
| 20260505201117 | 17 | 300 | 3.2 | 14.5 | 0.00 | 0.00 | 0.00 | 67 | 1017.1 |
| 20260505200005 | 17 | 279 | 3.2 | 9.7 | 0.00 | 0.00 | 0.00 | 68 | 1017.1 |
| 20260505195405 | 16 | 292 | 3.2 | 9.7 | 0.00 | 0.00 | 0.00 | 68 | 1017.2 |
| 20260505194505 | 16 | 300 | 4.8 | 12.9 | 0.00 | 0.00 | 0.00 | 71 | 1017.3 |
| 20260505193605 | 16 | 291 | 3.2 | 12.9 | 0.00 | 0.00 | 0.00 | 71 | 1017.3 |
| 20260505192918 | 16 | 287 | 3.2 | 11.3 | 0.00 | 0.00 | 0.00 | 70 | 1017.4 |
| 20260505192015 | 16 | 284 | 3.2 | 9.7 | 0.00 | 0.00 | 0.00 | 69 | 1017.4 |
| 20260505190905 | 16 | 295 | 1.6 | 6.4 | 0.00 | 0.00 | 0.00 | 69 | 1017.4 |
| 20260505190214 | 16 | 275 | 1.6 | 6.4 | 0.00 | 0.00 | 0.00 | 71 | 1017.5 |
| 20260505185404 | 16 | 273 | 1.6 | 4.8 | 0.00 | 0.00 | 0.00 | 73 | 1017.4 |
| 20260505184718 | 15 | 274 | 0.0 | 3.2 | 0.00 | 0.00 | 0.00 | 73 | 1017.4 |
| 20260505183816 | 15 | 287 | 1.6 | 8.0 | 0.00 | 0.00 | 0.00 | 74 | 1017.4 |
| 20260505182918 | 15 | 270 | 1.6 | 8.0 | 0.00 | 0.00 | 0.00 | 73 | 1017.4 |
| 20260505182015 | 15 | 251 | 0.0 | 4.8 | 0.00 | 0.00 | 0.00 | 75 | 1017.2 |
| 20260505180905 | 15 | 247 | 0.0 | 4.8 | 0.00 | 0.00 | 0.00 | 76 | 1017.1 |
| 20260505180004 | 14 | 324 | 0.0 | 4.8 | 0.00 | 0.00 | 0.00 | 78 | 1017.0 |
| 20260505175617 | 14 | 310 | 1.6 | 4.8 | 0.00 | 0.00 | 0.00 | 78 | 1017.0 |
| 20260505174505 | 14 | 258 | 1.6 | 9.7 | 0.00 | 0.00 | 0.00 | 78 | 1016.9 |
| 20260505173605 | 13 | 266 | 0.0 | 9.7 | 0.00 | 0.00 | 0.00 | 78 | 1016.8 |
| 20260505172919 | 13 | 300 | 0.0 | 3.2 | 0.00 | 0.00 | 0.00 | 79 | 1016.8 |
| 20260505171804 | 13 | 274 | 0.0 | 4.8 | 0.00 | 0.00 | 0.00 | 78 | 1016.9 |
| 20260505171118 | 13 | 279 | 0.0 | 4.8 | 0.00 | 0.00 | 0.00 | 79 | 1016.9 |
| 20260505170216 | 13 | 293 | 0.0 | 6.4 | 0.00 | 0.00 | 0.00 | 78 | 1017.1 |
| 20260505165405 | 13 | 293 | 0.0 | 4.8 | 0.00 | 0.00 | 0.00 | 79 | 1016.8 |
| 20260505164720 | 14 | 272 | 0.0 | 4.8 | 0.00 | 0.00 | 0.00 | 79 | 1016.8 |
| 20260505163604 | 14 | 294 | 1.6 | 6.4 | 0.00 | 0.00 | 0.00 | 77 | 1016.6 |
| 20260505162914 | 14 | 289 | 1.6 | 4.8 | 0.00 | 0.00 | 0.00 | 77 | 1016.5 |
| 20260505162017 | 14 | 256 | 1.6 | 4.8 | 0.00 | 0.00 | 0.00 | 76 | 1016.4 |
| 20260505161114 | 15 | 284 | 0.0 | 6.4 | 0.00 | 0.00 | 0.00 | 75 | 1016.4 |
| 20260505160216 | 14 | 307 | 0.0 | 4.8 | 0.00 | 0.00 | 0.00 | 76 | 1016.2 |
| 20260505152915 | 13 | 270 | 1.6 | 4.8 | 0.00 | 0.00 | 0.00 | 78 | 1016.4 |
| 20260505151805 | 13 | 291 | 1.6 | 3.2 | 0.00 | 0.00 | 0.00 | 76 | 1016.4 |
| 20260505151115 | 13 | 290 | 0.0 | 3.2 | 0.00 | 0.00 | 0.00 | 76 | 1016.2 |
| 20260505140218 | 11 | 200 | 0.0 | 6.4 | 0.00 | 0.00 | 0.00 | 83 | 1015.7 |
| 20260505124717 | 10 | 0 | 0.0 | 0.0 | 0.00 | 0.00 | 0.00 | 89 | 1015.6 |
| 20260505123605 | 10 | 0 | 0.0 | 0.0 | 0.00 | 0.00 | 0.00 | 88 | 1015.5 |
| 20260505122917 | 10 | 228 | 0.0 | 1.6 | 0.00 | 0.00 | 0.00 | 87 | 1015.6 |
| 20260505122014 | 10 | 0 | 0.0 | 0.0 | 0.00 | 0.00 | 0.00 | 86 | 1015.6 |
| 20260505120905 | 11 | 0 | 0.0 | 0.0 | 0.00 | 0.00 | 0.00 | 85 | 1015.5 |
| 20260505120005 | 11 | 230 | 0.0 | 1.6 | 0.00 | 0.00 | 0.00 | 84 | 1015.3 |
| 20260505115405 | 11 | 230 | 0.0 | 1.6 | 0.00 | 0.00 | 0.00 | 84 | 1015.4 |
| 20260505114718 | 11 | 217 | 0.0 | 1.6 | 0.00 | 0.00 | 0.00 | 84 | 1015.4 |
| 20260505113604 | 11 | 188 | 0.0 | 3.2 | 0.00 | 0.00 | 0.00 | 85 | 1015.3 |
| 20260505112918 | 11 | 188 | 0.0 | 3.2 | 0.00 | 0.00 | 0.00 | 85 | 1015.3 |
| 20260505111805 | 11 | 201 | 0.0 | 4.8 | 0.00 | 0.00 | 0.00 | 86 | 1015.4 |
| 20260505111117 | 11 | 169 | 0.0 | 4.8 | 0.00 | 0.00 | 0.00 | 87 | 1015.3 |
| 20260505110214 | 11 | 170 | 0.0 | 3.2 | 0.00 | 0.00 | 0.00 | 87 | 1015.4 |
| 20260505102015 | 11 | 221 | 0.0 | 3.2 | 0.00 | 0.00 | 0.00 | 90 | 1015.5 |
| 20260505101118 | 11 | 290 | 0.0 | 3.2 | 0.00 | 0.00 | 0.00 | 90 | 1015.5 |
| 20260505100215 | 11 | 256 | 0.0 | 1.6 | 0.00 | 0.00 | 0.00 | 91 | 1015.6 |
| 20260505095404 | 11 | 333 | 0.0 | 1.6 | 0.00 | 0.00 | 0.00 | 91 | 1015.6 |
| 20260505094714 | 10 | 334 | 0.0 | 1.6 | 0.00 | 0.00 | 0.00 | 91 | 1015.7 |
| 20260505093816 | 10 | 336 | 0.0 | 1.6 | 0.00 | 0.00 | 0.00 | 92 | 1015.7 |
| 20260505092705 | 10 | 0 | 0.0 | 0.0 | 0.00 | 0.00 | 0.00 | 92 | 1015.7 |
| 20260505091805 | 10 | 71 | 0.0 | 1.6 | 0.00 | 0.00 | 0.00 | 94 | 1015.8 |
| 20260505090905 | 10 | 0 | 0.0 | 0.0 | 0.00 | 0.00 | 0.00 | 93 | 1015.7 |
| 20260505090216 | 10 | 0 | 0.0 | 0.0 | 0.00 | 0.00 | 0.00 | 93 | 1015.8 |
| 20260505085617 | 9 | 0 | 0.0 | 0.0 | 0.00 | 0.00 | 0.00 | 93 | 1015.9 |